This is the latest recevied weather packets stored in our database for station/object DL7KAW-10. If no packets are shown the sender has not sent any weather packets the latest 10 day(s).
| Time | Temp. | Humidity | Pressure | Rain* | Wind** | Luminosity | Snow |
|---|---|---|---|---|---|---|---|
| 1777643745 | 17.22° C | 45% | 1027.7 hPa | - | - | - | - |
| 1777642845 | 17.22° C | 45% | 1027.7 hPa | - | - | - | - |
| 1777641945 | 17.22° C | 45% | 1027.8 hPa | - | - | - | - |
| 1777641045 | 17.22° C | 45% | 1028 hPa | - | - | - | - |
| 1777640145 | 16.67° C | 45% | 1028.3 hPa | - | - | - | - |
| 1777639245 | 17.22° C | 45% | 1028.4 hPa | - | - | - | - |
| 1777638345 | 16.67° C | 47% | 1028.6 hPa | - | - | - | - |
| 1777637445 | 16.67° C | 47% | 1028.8 hPa | - | - | - | - |
| 1777636545 | 16.67° C | 47% | 1028.7 hPa | - | - | - | - |
| 1777635644 | 16.67° C | 47% | 1028.7 hPa | - | - | - | - |
| 1777634744 | 17.22° C | 47% | 1028.8 hPa | - | - | - | - |
| 1777633844 | 17.22° C | 47% | 1028.9 hPa | - | - | - | - |
| 1777632944 | 17.22° C | 48% | 1029 hPa | - | - | - | - |
| 1777632044 | 17.22° C | 48% | 1029.2 hPa | - | - | - | - |
| 1777631144 | 17.78° C | 44% | 1029.2 hPa | - | - | - | - |
| 1777630244 | 18.33° C | 44% | 1029.3 hPa | - | - | - | - |
| 1777629344 | 17.78° C | 47% | 1029.3 hPa | - | - | - | - |
| 1777628444 | 17.22° C | 48% | 1029.5 hPa | - | - | - | - |
| 1777627543 | 17.78° C | 47% | 1029.6 hPa | - | - | - | - |
| 1777626643 | 18.89° C | 43% | 1029.7 hPa | - | - | - | - |
| 1777625743 | 22.22° C | 36% | 1029.6 hPa | - | - | - | - |
| 1777624843 | 33.89° C | 22% | 1029.4 hPa | - | - | - | - |
| 1777623943 | 32.78° C | 23% | 1029.5 hPa | - | - | - | - |
| 1777623043 | 28.89° C | 28% | 1029.5 hPa | - | - | - | - |
| 1777622143 | 15.56° C | 53% | 1029.8 hPa | - | - | - | - |
* Rain since midnight (hover to see other rain measurements)
** Current wind speed in m/s (hover to see current wind gust speed)